Regional Weather Roundup
Issued by NWS

Home | Current Version | Previous Version | Text Only | Print | Product List | Glossary Off
Versions: 1 2 3 4 5 6 7 8 9 10 11 12 13 14 15 16 17 18 19 20 21 22 23 24 25 26 27 28 29 30 31 32 33 34 35 36 37 38 39 40 41 42 43 44 45 46 47 48 49 50

000
ASUS43 KLOT 271406
RWRIL

ILLINOIS REGIONAL WEATHER ROUNDUP
NATIONAL WEATHER SERVICE CHICAGO/ROMEOVILLE IL
800 AM CST TUE JAN 27 2015

NOTE: "FAIR" INDICATES FEW OR NO CLOUDS BELOW 12,000 FEET WITH NO
SIGNIFICANT WEATHER AND/OR OBSTRUCTIONS TO VISIBILITY.

* THESE STATIONS ARE NOT UNDER NWS QUALITY CONTROL. THEY ALSO MAY NOT
  REPORT WEATHER SUCH AS PRECIPITATION OR FOG.

ILZ001-002-007-009-015-016-024-271500-
NORTHWEST ILLINOIS

CITY           SKY/WX    TMP DP  RH WIND       PRES   REMARKS
MOLINE         CLOUDY    30  24  78 N10G20    30.11R WCI  21
STERLING*      CLOUDY    27  21  80 NE7       30.11R WCI  19
SAVANNA*       CLOUDY    28  24  85 N7        30.12R WCI  21
$$

ILZ003-004-008-010-011-017-018-271500-
NORTH CENTRAL ILLINOIS

CITY           SKY/WX    TMP DP  RH WIND       PRES   REMARKS
ROCKFORD       CLOUDY    26  22  84 N9        30.12R FOG     WCI  17
FREEPORT*      CLOUDY    25  23  90 N7        30.12R FOG     WCI  17
ROCHELLE*      CLOUDY    26  24  91 N8        30.10R FOG     WCI  18
DE KALB*       CLOUDY    25  23  93 N8        30.08R FOG     WCI  16
PERU*          CLOUDY    29  27  92 N9        30.10R FOG     WCI  20
$$

ILZ005-006-012>014-019>023-271500-
NORTHEAST ILLINOIS

CITY           SKY/WX    TMP DP  RH WIND       PRES   REMARKS
CHICAGO-OHARE  CLOUDY    28  24  85 NE9       30.07R WCI  19
CHICAGO-MIDWAY CLOUDY    30  23  75 NE10      30.09R WCI  21
AURORA         CLOUDY    28  23  81 N7        30.08R HAZE    WCI  21
LANSING*       CLOUDY    26  23  89 CALM      30.09R
JOLIET*        CLOUDY    28  26  93 E6        30.09R FOG     WCI  21
WAUKEGAN       CLOUDY    28  20  71 NE6       30.09R WCI  22
DUPAGE AIRPORT CLOUDY    27  24  89 N7        30.07R FOG     WCI  19
KANKAKEE*      CLOUDY    26  25  94 N5        30.09R FOG     WCI  21
WHEELING       CLOUDY    28  22  78 NE5       30.10R WCI  23
MORRIS*        CLOUDY    28  28  97 CALM      30.08R FOG
ROMEOVILLE*    CLOUDY    28  28  99 E7        30.08R FOG     WCI  21
NORTHERLY ISL    N/A     28  21  75 NE12        N/A  WCI  18
$$

LMZ740>746-271500-
SOUTHERN LAKE MICHIGAN

STATION/POSITION SKY/WX   TEMP    WIND        PRES    VSBY  WAVE
                          AIR SEA DIR/SP/G                  HT/PER
                          (F)     (DEG/KT/KT) (MB)    (MI)  (FT/S)
WAUKEGAN HARBOR            28      60/ 10/ 12   N/A
HARRISON CRIB              28      50/ 12/ 15   N/A
BURNHAM HARBOR             28      60/ 10/ 12   N/A
CALUMET HARBOR             28      50/ 10/ 13   N/A
MICHIGAN CITY              23      50/  3/  4   N/A
$$

ILZ025>027-034>036-040-047-049-050-058-095>099-271500-
WEST-CENTRAL ILLINOIS

CITY           SKY/WX    TMP DP  RH WIND       PRES   REMARKS
QUINCY         PTCLDY    31  29  92 NW7       30.10R WCI  24
GALESBURG*     MOCLDY    29  28  94 N9        30.10R FOG     WCI  21
MACOMB*        PTCLDY    32  32  99 N7        30.11R WCI  26
JACKSONVILLE*  CLEAR     34  32  94 NW5       30.09R FOG     WCI  29
PITTSFIELD*    CLEAR     32  31  94 NW6       30.11R WCI  27
$$

ILZ028>032-037-038-041>044-048-051>054-059>061-271500-
CENTRAL ILLINOIS

CITY           SKY/WX    TMP DP  RH WIND       PRES   REMARKS
PONTIAC        CLOUDY    30  29  97 N7        30.09R FOG     WCI  23
BLOOMINGTON    CLOUDY    30  28  92 N9        30.07R FOG     WCI  22
DECATUR        CLOUDY    31  29  92 N6        30.06R FOG     WCI  25
PEORIA         CLOUDY    31  27  85 N6        30.09R FOG     WCI  25
LACON*         CLOUDY    28  25  87 N5        30.10R FOG     WCI  23
LINCOLN*       CLOUDY    32  30  92 N3        30.09R FOG
SPRINGFIELD    CLOUDY    33  29  85 N8        30.08R FOG     WCI  26
TAYLORVILLE    CLOUDY    30  30 100 NW9       30.08R FOG     WCI  22
$$

ILZ033-039-045-046-055>057-062-063-271500-
EAST-CENTRAL ILLINOIS

CITY           SKY/WX    TMP DP  RH WIND       PRES   REMARKS
CHAMPAIGN      CLOUDY    31  28  89 N8        30.05R WCI  23
DANVILLE*      CLOUDY    28  27  97 NE7       30.03R FOG     WCI  20
RANTOUL*       CLOUDY    31  30  96 N8        30.06R FOG     WCI  23
MATTOON        CLOUDY    31  29  92 NE9       30.03R FOG     WCI  23
PARIS*         FOG       30  30 100 NE3       30.05R VSB 3/4
$$

ILZ079-100>102-271500-
SOUTHWEST ILLINOIS

CITY           SKY/WX    TMP DP  RH WIND       PRES   REMARKS
BELLEVILLE     CLEAR     35  35  99 NW5       30.08R WCI  31
CAHOKIA*       PTCLDY    38  34  85 N8        30.09R WCI  32
SPARTA*        CLOUDY    36  33  90 N13       30.09R WCI  27
$$

ILZ064>066-069>071-074>076-080>082-084>086-088>090-092>094-271500-
SOUTH-CENTRAL ILLINOIS

CITY           SKY/WX    TMP DP  RH WIND       PRES   REMARKS
CARBONDALE     CLEAR     33  30  88 NW3       30.08R
CAIRO*         CLEAR     35  33  89 W3        30.08R
EFFINGHAM*     CLOUDY    32  28  83 N8        30.06R WCI  25
MARION         CLEAR     36  32  87 NW6       30.08R WCI  31
MT. VERNON     MOCLDY    34  27  75 CALM      30.06R
CENTRALIA*     CLOUDY    33  30  90 N7        30.07R FOG     WCI  26
SALEM*         CLEAR     33  31  91 N5        30.06R FOG     WCI  28
METROPOLIS*    CLEAR     34  34 100 NW3       30.06R FOG
$$

ILZ067-068-072-073-078-083-087-091-271500-
SOUTHEAST ILLINOIS

CITY           SKY/WX    TMP DP  RH WIND       PRES   REMARKS
LAWRENCEVILLE  CLOUDY    31  30  96 N6        30.05R FOG     WCI  25
FLORA*         CLEAR     33  30  90 N9        30.05R FOG     WCI  25
FAIRFIELD*     PTCLDY    32  30  92 N6        30.04R FOG     WCI  27
HARRISBURG*    MOCLDY    33  32  97 N7        30.07R FOG     WCI  26
ROBINSON*      FOG       30  30 100 N6        30.06R VSB 1/2 WCI  24
CARMI*         PTCLDY    36  34  93 N12       30.04R FOG     WCI  27
$$

ABBREVIATIONS USED IN REMARKS
   TC - TEMPERATURE IN CELSIUS
  WCI - WIND CHILL INDEX
   HX - HEAT INDEX
  VSB - VISIBILITY
$$




USA.gov is the U.S. government's official web portal to all federal, state and local government web resources and services.